Regional Weather Roundup
Issued by NWS

Home | Current Version | Previous Version | Text Only | Print | Product List | Glossary Off
Versions: 1 2 3 4 5 6 7 8 9 10 11 12 13 14 15 16 17 18 19 20 21 22 23 24 25 26 27 28 29 30 31 32 33 34 35 36 37 38 39 40 41 42 43 44 45 46 47 48 49 50

000
ASUS43 KLOT 300209
RWRIL

ILLINOIS REGIONAL WEATHER ROUNDUP
NATIONAL WEATHER SERVICE CHICAGO/ROMEOVILLE IL
900 PM CDT FRI JUL 29 2016

NOTE: "FAIR" INDICATES FEW OR NO CLOUDS BELOW 12,000 FEET WITH NO
SIGNIFICANT WEATHER AND/OR OBSTRUCTIONS TO VISIBILITY.

* THESE STATIONS ARE NOT UNDER NWS QUALITY CONTROL. THEY ALSO MAY NOT
  REPORT WEATHER SUCH AS PRECIPITATION OR FOG.

ILZ001-002-007-009-015-016-024-300300-
NORTHWEST ILLINOIS

CITY           SKY/WX    TMP DP  RH WIND       PRES   REMARKS
MOLINE         PTCLDY    70  65  84 E7        29.94R
STERLING*      CLOUDY    70  70 100 N5        29.96R
SAVANNA*       MOCLDY    69  66  90 NE5       29.96S
$$

ILZ003-004-008-010-011-017-018-300300-
NORTH CENTRAL ILLINOIS

CITY           SKY/WX    TMP DP  RH WIND       PRES   REMARKS
ROCKFORD       CLOUDY    69  66  90 NE8       29.98S
FREEPORT*      CLOUDY    69  66  89 NE7       29.99S
ROCHELLE*      CLOUDY    68  67  96 NE12      29.96R
DE KALB*       CLOUDY    69  67  93 N7        29.97R
$$

ILZ005-006-012>014-019>023-300300-
NORTHEAST ILLINOIS

CITY           SKY/WX    TMP DP  RH WIND       PRES   REMARKS
CHICAGO-OHARE  MOCLDY    71  66  84 E10       29.94S
CHICAGO-MIDWAY CLOUDY    74  68  81 E8        29.94R
AURORA         PTCLDY    71  68  90 NE9       29.94S
LANSING*       MOCLDY    71  65  83 E3        29.94F
JOLIET*        CLOUDY    72  69  91 E5        29.93S
WAUKEGAN       CLOUDY    68  66  93 NE6       29.96R
DUPAGE AIRPORT CLOUDY    71  66  84 NE7       29.94R
KANKAKEE*      CLOUDY    70  68  92 CALM      29.93F
WHEELING       CLOUDY    71  66  84 NE3       29.97R
MORRIS*        CLOUDY    70  68  93 CALM      29.92R
ROMEOVILLE*    DRIZZLE   70  67  89 E7        29.93S
NORTHERLY ISL    N/A     73  68  84 E8          N/A
$$

LMZ740>746-300300-
SOUTHERN LAKE MICHIGAN

STATION/POSITION SKY/WX   TEMP    WIND        PRES    VSBY  WAVE
                          AIR SEA DIR/SP/G                  HT/PER
                          (F)     (DEG/KT/KT) (MB)    (MI)  (FT/S)
SOUTHERN BUOY              73 74   70/ 12/ 14 1014.0F         3/ 4
WILMETTE HARBOR            73 72  100/  8/ 10   N/A           3/ 6
HARRISON CRIB              73      90/ 11/ 12   N/A
BURNHAM HARBOR             73      70/  7/ 13   N/A
CALUMET HARBOR                                1013.4
BURNS HARBOR               71      70/  5/ 14 1014.2R
MICHIGAN CITY              71      50/  7/  9   N/A
MICHIGAN CITY 6N           75 76   70/ 14/ 16   N/A           3/ 5
ST. JOSEPH                 73 75   40/ 10/ 12 1013.6S         2
$$

ILZ025>027-034>036-040-047-049-050-058-095>099-300300-
WEST-CENTRAL ILLINOIS

CITY           SKY/WX    TMP DP  RH WIND       PRES   REMARKS
QUINCY         CLEAR     72  68  87 NW5       29.94S
GALESBURG*     MOCLDY    70  66  88 N6        29.94S
MACOMB*        CLEAR     69  67  92 W3        29.96F
JACKSONVILLE*  CLEAR     71  67  86 NW3       29.93S
PITTSFIELD*    CLEAR     73  67  83 N5        29.95S
$$

ILZ028>032-037-038-041>044-048-051>054-059>061-300300-
CENTRAL ILLINOIS

CITY           SKY/WX    TMP DP  RH WIND       PRES   REMARKS
PONTIAC        CLEAR     72  72 100 N3        29.94R
BLOOMINGTON    PTCLDY    73  68  84 W5        29.94S
DECATUR        CLEAR     76  66  71 NW6       29.93S
PEORIA         PTCLDY    74  68  81 NW6       29.93S
LACON*         CLOUDY    68  66  94 CALM      29.92S
LINCOLN*       CLEAR     74  69  85 CALM      29.93S
SPRINGFIELD    CLEAR     74  68  81 N3        29.93S
TAYLORVILLE    CLEAR     71  68  89 MISG      29.93S
$$

ILZ033-039-045-046-055>057-062-063-300300-
EAST-CENTRAL ILLINOIS

CITY           SKY/WX    TMP DP  RH WIND       PRES   REMARKS
CHAMPAIGN      MOCLDY    73  68  84 NW3       29.93R
MATTOON        CLEAR     72  68  87 W5        29.92R
PARIS*         CLEAR     70  70  99 CALM      29.93R
$$

ILZ079-100>102-300300-
SOUTHWEST ILLINOIS

CITY           SKY/WX    TMP DP  RH WIND       PRES   REMARKS
BELLEVILLE     CLOUDY    73  73 100 CALM      29.91S
CAHOKIA*       CLOUDY    78  71  79 SE3       29.91R HX  80
SPARTA*        MOCLDY    77  74  90 SE3       29.92S
$$

ILZ064>066-069>071-074>076-080>082-084>086-088>090-092>094-300300-
SOUTH-CENTRAL ILLINOIS

CITY           SKY/WX    TMP DP  RH WIND       PRES   REMARKS
CARBONDALE     CLOUDY    75  73  93 CALM      29.91S
CAIRO*         CLOUDY    72  72  99 CALM      29.91R
EFFINGHAM*     CLOUDY    73  72  96 CALM      29.94R
MARION         CLOUDY    77  73  88 CALM      29.92S
MT. VERNON     CLOUDY    75  70  83 CALM      29.92S
CENTRALIA*     CLOUDY    76  73  92 CALM      29.92R
SALEM*         PTCLDY    74  72  91 CALM      29.92S
METROPOLIS*    LGT RAIN  75  73  95 CALM      29.93S
$$

ILZ067-068-072-073-078-083-087-091-300300-
SOUTHEAST ILLINOIS

CITY           SKY/WX    TMP DP  RH WIND       PRES   REMARKS
LAWRENCEVILLE  CLOUDY    76  72  87 CALM        N/A
FLORA*         CLOUDY    78  71  80 CALM      29.92S HX  80
FAIRFIELD*     CLOUDY    75  74  97 CALM      29.91S
HARRISBURG*    CLOUDY    76  76  98 CALM      29.93S
ROBINSON*      CLEAR     71  69  94 CALM      29.92S
CARMI*         CLOUDY    75  74  98 CALM      29.92R
$$

ABBREVIATIONS USED IN REMARKS
   TC - TEMPERATURE IN CELSIUS
  WCI - WIND CHILL INDEX
   HX - HEAT INDEX
  VSB - VISIBILITY
$$




USA.gov is the U.S. government's official web portal to all federal, state and local government web resources and services.